Location: Ida
(33.5751°N, 96.4900°W)
Time: 05:11:23
(UTC+00:00)

BlueWalker 3 - Visible Passes

Search period start: 04 October 2024 00:00
Search period end: 14 October 2024 00:00
Orbit: 473 x 486 km, 53.2° (Epoch: 03 October)

Date Brightness Start Highest point End Pass type
(mag) Time Alt. Az. Time Alt. Az. Time Alt. Az.
04 Oct 3.9 10:09:42 26° E 10:09:42 26° E 10:11:51 10° ENE visible
04 Oct 3.2 11:43:56 12° W 11:46:32 23° NW 11:49:32 10° NNE visible
05 Oct 5.1 09:43:16 12° ENE 09:43:16 12° ENE 09:43:38 10° ENE visible
05 Oct 3.0 11:17:30 23° WNW 11:18:22 26° NW 11:21:31 10° NNE visible
06 Oct 3.2 10:50:54 27° NNW 10:50:54 27° NNW 10:53:27 10° NNE visible
07 Oct 4.1 10:24:10 18° NNE 10:24:10 18° NNE 10:25:20 10° NNE visible
